Weather in Belyakovskoe

Russia / Sverdlovsk Oblast     56°59′22″N   64°11′32″E
temp.,
°C
wind,
m/s
gust,
m/s
humid.,
%
clouds,
%
prec.,
mm/h
press.,
hPa
HPBL,
m
14 april, wed
wed1423:00+7sw3108950 0.0 1034204
02:00+8sw41290100 0.0 1032298
05:00+7wsw31194100 0.0 1031275
08:00+9wsw41087100 0.0 1031296
11:00+14w47705 0.0 1030540
14:00+18w46596 0.0 1028983
17:00+18w475510 0.0 10271195
20:00+13wsw227317 0.0 102733
15 april, thu
thu1523:00+11w228353 0.0 102728
02:00+9w22835 0.0 102616
05:00+8wsw23915 0.0 102551
08:00+12wsw36825 0.0 1024206
11:00+17wsw46605 0.0 1022787
14:00+19wsw584721 0.0 10201400
17:00+20wsw48435 0.0 10181623
20:00+13sw38585 0.0 1017135
16 april, fri
fri1623:00+12wsw31266100 0.0 1016281
02:00+10wsw3127676 0.0 1015292
05:00+8nnw4108871 0.0 1016482
08:00+3nne51295100 0.2 1021575
11:00+7nne685094 0.4 10221378
14:00+8nne5639100 0.0 10231841
17:00+9nne453479 0.0 10232081
20:00+5ne374897 0.0 1025267
17 april, sat
sat1723:00+1ene27595 0.0 1025235
02:00−1ese22650 0.0 102521
05:00−1ssw22660 0.0 102425
08:00+2wsw3652100 0.0 1022379
11:00+7w584197 0.0 10191881
14:00+8nw71049100 0.1 10171965
17:00+5nnw5114012 1.2 10192004
20:00+1nnw2256100 0.0 102026
18 april, sun
sun1823:000w1160100 0.0 102010
02:00−1sse1166100 0.0 101913
05:00+1sw2762100 0.3 1018848
08:00+2nw466182 0.1 10171028
11:00−1ne586199 0.3 10211263
14:00+2nne57291 0.1 10231897
17:00+2nne57274 0.1 10262098
20:00−2nne24450 0.0 102884